FW6081 Weather Reports


Display with metric or nautical units.
time (UTC)temp
F
wind
direction
speed
MPH
gust
MPH
rain 1hr
in
rain 24hr
in
rain mn
in
humidity
%
barometer
mb
20260505224103 86 308 7.0 12.0 0.00 0.00 0.00 43 1003.6
20260505223558 87 321 5.0 14.0 0.00 0.00 0.00 42 1003.3
20260505223100 88 318 4.0 14.0 0.00 0.00 0.00 43 1003.0
20260505222558 89 324 7.0 14.0 0.00 0.00 0.00 42 1002.9
20260505222057 90 289 3.0 8.0 0.00 0.00 0.00 48 1002.7
20260505221602 89 281 3.0 10.0 0.00 0.00 0.00 49 1002.7
20260505221058 89 265 4.0 10.0 0.00 0.00 0.00 49 1002.6
20260505220555 89 286 5.0 9.0 0.00 0.00 0.00 48 1002.6
20260505220054 89 210 1.0 9.0 0.00 0.00 0.00 50 1002.8
20260505215554 89 212 1.0 10.0 0.00 0.00 0.00 49 1002.9
20260505215054 89 251 2.0 10.0 0.00 0.00 0.00 49 1003.0
20260505214554 89 278 0.0 9.0 0.00 0.00 0.00 49 1002.9
20260505214054 89 272 3.0 10.0 0.00 0.00 0.00 49 1003.0
20260505213553 89 252 4.0 13.0 0.00 0.00 0.00 50 1002.8
20260505213057 89 215 5.0 13.0 0.00 0.00 0.00 50 1003.1
20260505212552 89 220 1.0 10.0 0.00 0.00 0.00 50 1003.0
20260505212052 89 222 3.0 11.0 0.00 0.00 0.00 48 1003.1
20260505211552 89 224 2.0 9.0 0.00 0.00 0.00 50 1003.2
20260505211051 89 254 2.0 10.0 0.00 0.00 0.00 51 1003.3
20260505210551 89 231 3.0 13.0 0.00 0.00 0.00 50 1003.3
20260505210051 89 214 5.0 13.0 0.00 0.00 0.00 49 1003.4
20260505205551 89 229 0.0 10.0 0.00 0.00 0.00 49 1003.3
20260505205053 89 236 3.0 10.0 0.00 0.00 0.00 49 1003.4
20260505204550 89 230 2.0 8.0 0.00 0.00 0.00 49 1003.5
20260505204048 89 231 2.0 8.0 0.00 0.00 0.00 50 1003.6
20260505203548 88 264 3.0 9.0 0.00 0.00 0.00 49 1003.7
20260505203051 88 263 3.0 13.0 0.00 0.00 0.00 51 1004.1
20260505202546 88 275 6.0 13.0 0.00 0.00 0.00 50 1004.1
20260505202044 88 210 3.0 12.0 0.00 0.00 0.00 51 1004.0
20260505201546 88 208 2.0 12.0 0.00 0.00 0.00 51 1004.0
20260505201043 88 224 2.0 12.0 0.00 0.00 0.00 54 1004.0
20260505200542 87 214 2.0 12.0 0.00 0.00 0.00 54 1004.0
20260505200040 87 235 5.0 13.0 0.00 0.00 0.00 54 1004.1
20260505195540 87 241 5.0 13.0 0.00 0.00 0.00 54 1004.0
20260505195039 87 225 6.0 13.0 0.00 0.00 0.00 53 1004.0
20260505194547 87 185 4.0 13.0 0.00 0.00 0.00 54 1004.0
20260505194043 86 231 2.0 12.0 0.00 0.00 0.00 55 1004.2
20260505193538 86 206 4.0 12.0 0.00 0.00 0.00 54 1004.2
20260505193057 86 233 5.0 12.0 0.00 0.00 0.00 54 1004.1
20260505192536 86 197 5.0 14.0 0.00 0.00 0.00 55 1004.0
20260505192034 86 200 3.0 14.0 0.00 0.00 0.00 55 1004.1
20260505191539 85 202 3.0 11.0 0.00 0.00 0.00 56 1004.1
20260505191032 85 225 3.0 10.0 0.00 0.00 0.00 57 1004.2
20260505190534 84 195 3.0 14.0 0.00 0.00 0.00 56 1004.1
20260505190037 84 197 4.0 14.0 0.00 0.00 0.00 56 1004.2
20260505185528 84 235 2.0 11.0 0.00 0.00 0.00 57 1004.2
20260505185029 84 185 4.0 13.0 0.00 0.00 0.00 56 1004.2
20260505184531 84 165 3.0 9.0 0.00 0.00 0.00 57 1004.3
20260505184027 83 195 2.0 12.0 0.00 0.00 0.00 57 1004.3
20260505183525 83 234 4.0 12.0 0.00 0.00 0.00 57 1004.4
20260505183027 83 185 3.0 12.0 0.00 0.00 0.00 57 1004.3
20260505182523 83 185 2.0 11.0 0.00 0.00 0.00 57 1004.3
20260505182023 82 166 4.0 13.0 0.00 0.00 0.00 57 1004.4
20260505181523 82 254 6.0 13.0 0.00 0.00 0.00 57 1004.4
20260505181022 82 250 5.0 13.0 0.00 0.00 0.00 57 1004.4
20260505180521 83 180 4.0 13.0 0.00 0.00 0.00 57 1004.5
20260505180030 82 220 5.0 14.0 0.00 0.00 0.00 57 1004.3
20260505175521 82 195 5.0 15.0 0.00 0.00 0.00 57 1004.4
20260505175018 82 185 6.0 16.0 0.00 0.00 0.00 57 1004.3
20260505174518 81 161 4.0 16.0 0.00 0.00 0.00 58 1004.4
20260505174016 81 214 3.0 20.0 0.00 0.00 0.00 58 1004.4
20260505173515 81 199 4.0 14.0 0.00 0.00 0.00 57 1004.4
20260505173015 81 195 6.0 14.0 0.00 0.00 0.00 58 1004.4
20260505172514 80 198 5.0 15.0 0.00 0.00 0.00 58 1004.4
20260505172012 80 206 5.0 15.0 0.00 0.00 0.00 58 1004.4
20260505171512 80 231 3.0 16.0 0.00 0.00 0.00 58 1004.4
20260505171013 80 191 6.0 17.0 0.00 0.00 0.00 57 1004.3
20260505170510 80 196 6.0 18.0 0.00 0.00 0.00 57 1004.7
20260505170016 80 170 6.0 18.0 0.00 0.00 0.00 57 1004.7
20260505165509 79 226 3.0 15.0 0.00 0.00 0.00 58 1004.7
20260505165008 79 175 5.0 15.0 0.00 0.00 0.00 57 1004.7
20260505164507 79 125 5.0 13.0 0.00 0.00 0.00 58 1004.6
20260505164006 79 215 4.0 13.0 0.00 0.00 0.00 58 1004.7
20260505163506 78 206 3.0 12.0 0.00 0.00 0.00 58 1004.6
20260505163004 78 200 3.0 17.0 0.00 0.00 0.00 58 1004.7
20260505162504 78 217 3.0 17.0 0.00 0.00 0.00 58 1004.6
20260505162003 78 203 4.0 22.0 0.00 0.00 0.00 57 1004.5
20260505161503 78 194 7.0 22.0 0.00 0.00 0.00 58 1004.4
20260505161002 78 251 3.0 18.0 0.00 0.00 0.00 58 1004.5
20260505160502 78 217 4.0 14.0 0.00 0.00 0.00 57 1004.4
20260505153103 76 209 7.0 18.0 0.00 0.00 0.00 58 1003.9
20260505152554 76 175 4.0 18.0 0.00 0.00 0.00 58 1004.0
20260505152053 76 204 4.0 15.0 0.00 0.00 0.00 58 1004.1
20260505151552 76 205 4.0 16.0 0.00 0.00 0.00 58 1004.1
20260505151055 76 240 7.0 16.0 0.00 0.00 0.00 58 1004.3
20260505150552 76 195 5.0 16.0 0.00 0.00 0.00 58 1004.3
20260505140537 73 195 5.0 16.0 0.00 0.00 0.00 61 1004.3
20260505125028 72 201 4.0 16.0 0.00 0.00 0.00 62 1004.2
20260505124528 72 185 4.0 16.0 0.00 0.00 0.00 62 1004.0
20260505124028 72 195 4.0 14.0 0.00 0.00 0.00 62 1003.9
20260505123531 72 171 4.0 19.0 0.00 0.00 0.00 61 1003.8
20260505123026 72 204 4.0 19.0 0.00 0.00 0.00 61 1003.6
20260505122526 72 201 4.0 14.0 0.00 0.00 0.00 61 1003.7
20260505122025 72 143 6.0 14.0 0.00 0.00 0.00 62 1003.6
20260505121525 72 175 3.0 15.0 0.00 0.00 0.00 62 1003.7
20260505121024 72 226 5.0 15.0 0.00 0.00 0.00 62 1003.7
20260505120524 72 235 4.0 16.0 0.00 0.00 0.00 62 1003.6
20260505120035 72 180 6.0 16.0 0.00 0.00 0.00 62 1003.5
20260505115522 72 180 3.0 15.0 0.00 0.00 0.00 62 1003.5
20260505115021 72 156 6.0 15.0 0.00 0.00 0.00 62 1003.7
20260505114521 72 211 4.0 12.0 0.00 0.00 0.00 62 1003.6
20260505114021 71 175 5.0 14.0 0.00 0.00 0.00 62 1003.5
20260505113521 71 199 4.0 19.0 0.00 0.00 0.00 62 1003.4
20260505113020 71 196 6.0 19.0 0.00 0.00 0.00 62 1003.5
20260505112522 71 166 3.0 18.0 0.00 0.00 0.00 63 1003.3
20260505112020 71 165 7.0 16.0 0.00 0.00 0.00 63 1003.3
20260505111529 71 228 4.0 13.0 0.00 0.00 0.00 63 1003.4
20260505111121 71 199 3.0 13.0 0.00 0.00 0.00 63 1003.3
20260505110522 71 216 3.0 17.0 0.00 0.00 0.00 63 1003.3
20260505102017 72 210 3.0 14.0 0.00 0.00 0.00 62 1003.4
20260505101517 71 166 6.0 17.0 0.00 0.00 0.00 62 1003.3
20260505101018 71 216 8.0 17.0 0.00 0.00 0.00 62 1003.4
20260505100516 71 197 5.0 17.0 0.00 0.00 0.00 62 1003.4
20260505100020 71 153 4.0 14.0 0.00 0.00 0.00 62 1003.4
20260505095515 71 175 5.0 14.0 0.00 0.00 0.00 62 1003.4
20260505095016 71 195 4.0 14.0 0.00 0.00 0.00 62 1003.4
20260505094517 71 201 5.0 16.0 0.00 0.00 0.00 62 1003.4
20260505094014 71 204 5.0 16.0 0.00 0.00 0.00 63 1003.6
20260505093513 71 189 4.0 15.0 0.00 0.00 0.00 63 1003.5
20260505093013 71 200 6.0 16.0 0.00 0.00 0.00 63 1003.6
20260505092513 71 191 7.0 16.0 0.00 0.00 0.00 63 1003.7
20260505092011 71 185 7.0 20.0 0.00 0.00 0.00 63 1003.7
20260505091511 71 180 7.0 20.0 0.00 0.00 0.00 63 1003.7
20260505091009 71 189 5.0 14.0 0.00 0.00 0.00 63 1003.8
20260505090510 71 175 5.0 15.0 0.00 0.00 0.00 63 1003.8
20260505090008 71 197 6.0 17.0 0.00 0.00 0.00 63 1003.7
20260505085507 71 164 4.0 17.0 0.00 0.00 0.00 63 1003.8
20260505085006 71 234 5.0 16.0 0.00 0.00 0.00 63 1003.7
20260505084511 71 180 2.0 14.0 0.00 0.00 0.00 64 1003.7
20260505084006 71 180 5.0 14.0 0.00 0.00 0.00 64 1003.7
20260505083504 71 191 4.0 14.0 0.00 0.00 0.00 64 1003.8
20260505083008 71 197 6.0 14.0 0.00 0.00 0.00 63 1003.9
20260505082506 71 185 5.0 17.0 0.00 0.00 0.00 63 1003.8
20260505082002 71 197 3.0 16.0 0.00 0.00 0.00 63 1003.8
20260505081502 71 206 4.0 12.0 0.00 0.00 0.00 64 1003.8
20260505081004 71 185 5.0 12.0 0.00 0.00 0.00 63 1003.8
20260505080603 71 189 3.0 11.0 0.00 0.00 0.00 63 1003.9
20260505080105 71 194 3.0 14.0 0.00 0.00 0.00 63 1003.9
20260505075558 71 185 5.0 14.0 0.00 0.00 0.00 63 1004.0
20260505075057 71 185 6.0 14.0 0.00 0.00 0.00 64 1004.0
20260505074557 72 190 3.0 13.0 0.00 0.00 0.00 64 1004.2
20260505074056 72 185 5.0 14.0 0.00 0.00 0.00 64 1004.3
20260505073555 72 194 3.0 14.0 0.00 0.00 0.00 63 1004.4
20260505073100 72 170 4.0 13.0 0.00 0.00 0.00 63 1004.4
20260505072556 72 197 4.0 13.0 0.00 0.00 0.00 63 1004.4
20260505072053 72 212 4.0 13.0 0.00 0.00 0.00 63 1004.5
20260505071612 72 199 3.0 12.0 0.00 0.00 0.00 63 1004.5
20260505071054 72 185 4.0 16.0 0.00 0.00 0.00 63 1004.6
20260505070549 72 224 4.0 16.0 0.00 0.00 0.00 63 1004.7
20260505070053 72 192 4.0 13.0 0.00 0.00 0.00 63 1004.7
20260505065548 72 185 2.0 14.0 0.00 0.00 0.00 63 1004.7
20260505065047 72 185 4.0 13.0 0.00 0.00 0.00 63 1004.8
20260505064547 72 189 4.0 12.0 0.00 0.00 0.00 63 1004.9
20260505064046 72 180 5.0 15.0 0.00 0.00 0.00 62 1004.8
20260505063545 72 200 7.0 14.0 0.00 0.00 0.00 62 1004.9
20260505063051 73 175 4.0 14.0 0.00 0.00 0.00 62 1004.8
20260505062544 73 161 3.0 15.0 0.00 0.00 0.00 62 1004.9
20260505062043 73 175 4.0 15.0 0.00 0.00 0.00 62 1005.0
20260505061542 73 160 3.0 15.0 0.00 0.00 0.00 62 1005.0
20260505061041 73 198 4.0 17.0 0.00 0.00 0.00 62 1004.9
20260505060542 73 202 6.0 17.0 0.00 0.00 0.00 62 1004.8
20260505060056 73 191 5.0 15.0 0.00 0.00 0.00 62 1004.8
20260505055540 73 171 6.0 15.0 0.00 0.00 0.00 62 1004.8
20260505055142 73 180 4.0 14.0 0.00 0.00 0.00 62 1005.0
20260505054539 73 185 4.0 17.0 0.00 0.00 0.00 61 1005.1
20260505054040 73 175 6.0 17.0 0.00 0.00 0.00 61 1005.1
20260505053537 73 199 5.0 17.0 0.00 0.00 0.00 61 1005.1
20260505053038 73 175 5.0 17.0 0.00 0.00 0.00 61 1005.2
20260505052535 73 193 4.0 16.0 0.00 0.00 0.00 61 1005.4
20260505052036 73 194 6.0 16.0 0.00 0.00 0.00 61 1005.5
20260505051532 73 196 3.0 20.0 0.00 0.00 0.00 61 1005.5
20260505051030 73 194 3.0 13.0 0.00 0.00 0.00 61 1005.5
20260505050528 74 185 4.0 15.0 0.00 0.00 0.00 60 1005.6
20260505041524 74 180 6.0 17.0 0.00 0.00 0.00 60 1005.7
20260505041024 74 168 5.0 14.0 0.00 0.00 0.00 60 1005.7
20260505040530 74 185 4.0 16.0 0.00 0.00 0.00 60 1005.7
20260505040025 74 198 3.0 16.0 0.00 0.00 0.00 60 1005.8
20260505035525 74 175 2.0 11.0 0.00 0.00 0.00 60 1005.7
20260505035023 74 180 4.0 13.0 0.00 0.00 0.00 60 1005.6
20260505034523 74 175 3.0 16.0 0.00 0.00 0.00 59 1005.7
20260505034027 74 200 4.0 16.0 0.00 0.00 0.00 59 1005.6
20260505033523 74 175 2.0 12.0 0.00 0.00 0.00 59 1005.7
20260505033023 74 196 4.0 15.0 0.00 0.00 0.00 59 1005.7
20260505032522 74 162 5.0 15.0 0.00 0.00 0.00 59 1005.8
20260505032023 74 185 3.0 15.0 0.00 0.00 0.00 59 1005.8
20260505031522 74 200 3.0 18.0 0.00 0.00 0.00 59 1005.7
20260505031021 74 185 4.0 18.0 0.00 0.00 0.00 59 1005.8
20260505030521 74 180 2.0 12.0 0.00 0.00 0.00 59 1005.8
20260505030021 75 175 3.0 12.0 0.00 0.00 0.00 59 1005.7
20260505025622 75 170 2.0 10.0 0.00 0.00 0.00 59 1005.9
20260505025020 75 175 2.0 13.0 0.00 0.00 0.00 59 1005.9
20260505024520 75 185 3.0 13.0 0.00 0.00 0.00 59 1005.8
20260505024020 75 175 4.0 13.0 0.00 0.00 0.00 59 1005.9
20260505023519 75 222 2.0 11.0 0.00 0.00 0.00 59 1005.8
20260505023021 75 175 4.0 11.0 0.00 0.00 0.00 58 1005.9
20260505022519 75 185 3.0 11.0 0.00 0.00 0.00 58 1005.8
20260505022019 75 209 1.0 8.0 0.00 0.00 0.00 58 1005.9
20260505021519 75 206 3.0 12.0 0.00 0.00 0.00 58 1005.7
20260505021019 75 185 3.0 15.0 0.00 0.00 0.00 58 1005.8
20260505020518 75 192 2.0 15.0 0.00 0.00 0.00 58 1005.7
20260505020025 75 208 3.0 18.0 0.00 0.00 0.00 58 1005.6
20260505015518 76 175 5.0 13.0 0.00 0.00 0.00 58 1005.6
20260505015018 76 166 3.0 11.0 0.00 0.00 0.00 58 1005.6
20260505014530 76 164 3.0 14.0 0.00 0.00 0.00 58 1005.7
20260505014017 76 185 7.0 15.0 0.00 0.00 0.00 58 1005.7
20260505013518 76 198 3.0 15.0 0.00 0.00 0.00 57 1005.7
20260505013021 76 192 3.0 14.0 0.00 0.00 0.00 57 1005.7
20260505012520 76 180 3.0 14.0 0.00 0.00 0.00 57 1005.7
20260505012016 76 175 4.0 14.0 0.00 0.00 0.00 57 1005.7
20260505011515 76 197 2.0 20.0 0.00 0.00 0.00 57 1005.7
20260505011017 76 175 5.0 20.0 0.00 0.00 0.00 57 1005.6
20260505010515 76 192 2.0 11.0 0.00 0.00 0.00 56 1005.6
20260505010015 76 193 2.0 15.0 0.00 0.00 0.00 56 1005.6
20260505005515 77 201 3.0 15.0 0.00 0.00 0.00 56 1005.5
20260505005015 77 185 5.0 15.0 0.00 0.00 0.00 56 1005.6
20260505004515 77 185 4.0 16.0 0.00 0.00 0.00 55 1005.6
20260505004015 77 242 4.0 17.0 0.00 0.00 0.00 55 1005.4
20260505003514 77 195 3.0 17.0 0.00 0.00 0.00 55 1005.7
20260505003018 77 195 8.0 17.0 0.00 0.00 0.00 55 1005.7
20260505002514 77 180 3.0 17.0 0.00 0.00 0.00 55 1005.6
20260505002012 78 180 6.0 20.0 0.00 0.00 0.00 55 1005.7
20260505001512 78 180 5.0 20.0 0.00 0.00 0.00 54 1005.8
20260505001013 78 175 7.0 15.0 0.00 0.00 0.00 54 1005.7
20260505000514 78 180 4.0 17.0 0.00 0.00 0.00 54 1005.6
20260505000012 78 191 4.0 19.0 0.00 0.00 0.00 54 1005.7
20260504235511 78 217 6.0 18.0 0.00 0.00 0.00 54 1005.7
20260504235011 78 180 8.0 23.0 0.00 0.00 0.00 53 1005.8
20260504234511 78 185 6.0 18.0 0.00 0.00 0.00 53 1005.8
20260504234016 78 207 5.0 16.0 0.00 0.00 0.00 53 1005.9
20260504233510 79 122 4.0 15.0 0.00 0.00 0.00 53 1005.8
20260504233011 79 156 5.0 18.0 0.00 0.00 0.00 53 1005.9
20260504232512 79 160 4.0 18.0 0.00 0.00 0.00 53 1005.8
20260504232008 79 175 7.0 16.0 0.00 0.00 0.00 52 1006.0
20260504231508 80 204 4.0 15.0 0.00 0.00 0.00 52 1006.1
20260504231107 80 205 3.0 15.0 0.00 0.00 0.00 52 1006.2
20260504230509 80 169 5.0 17.0 0.00 0.00 0.00 51 1006.1
20260504230007 80 180 3.0 14.0 0.00 0.00 0.00 51 1006.1
20260504225507 80 205 3.0 17.0 0.00 0.00 0.00 52 1006.3
20260504225006 80 142 4.0 19.0 0.00 0.00 0.00 52 1006.3
20260504224606 80 158 8.0 19.0 0.00 0.00 0.00 51 1006.4